Date String (YYYY-MM-DD hh:mm:ss) UTC,Instrument flags,absolute air pressure of the measurement (hPa),sample flow rate (lpm),inlet stack bypass flow (lpm),air temperature of the measurement (°C),ambient temperature measured by the external sensor (°C),aerosol sample conditioner tube jacket temperature (°C),OPC LED temperature (°C),internal box temperature (°C),relative humidity of the measurement (%),span deviation,mass concentration of particles derived from Lorenz-Mie calculation of OPC scattering (μg/m³),mass concentration of particles derived from Lorenz-Mie calculation of OPC scattering (μg/m³),mass concentration of particles derived from Lorenz-Mie calculation of OPC scattering (μg/m³)
DateTimeUTC,F1_M11,P_M11,Q1_M11,Q2_M11,T1_M11,T2_M11,T3_M11,T4_M11,T5_M11,U1_M11,ZSPAN_M11,X0_M11,X2_M11,X1_M11
2023-12-12 09:00:00,SystemResetWarning,0833.9,5.01,000.00,022.5,021.6,000.0,030.9,023.8,22.3,0000.0,0008.36,0006.44,0006.20
2023-12-12 09:01:00,SystemResetWarning,0834.0,5.00,000.00,022.5,021.6,000.0,030.9,023.8,22.3,0000.0,0008.31,0006.43,0006.21
2023-12-12 09:02:00,SystemResetWarning,0833.9,5.01,000.00,022.5,021.6,000.0,030.8,023.8,22.2,0000.0,0008.35,0006.43,0006.20
2023-12-12 09:03:00,SystemResetWarning,0833.9,5.00,000.00,022.5,021.6,000.0,030.8,023.8,22.3,0000.0,0008.32,0006.43,0006.20
2023-12-12 09:04:00,SystemResetWarning,0833.9,4.99,000.00,022.5,021.5,000.0,030.8,023.8,22.2,0000.0,0008.25,0006.39,0006.18
2023-12-12 09:05:00,SystemResetWarning,0833.9,5.00,000.00,022.5,021.5,000.0,030.8,023.8,22.2,0000.0,0008.12,0006.32,0006.13
2023-12-12 09:06:00,SystemResetWarning,0833.9,5.00,000.00,022.5,021.5,000.0,030.8,023.8,22.2,0000.0,0008.02,0006.23,0006.08
2023-12-12 09:07:00,SystemResetWarning,0833.9,5.00,000.00,022.5,021.5,000.0,030.8,023.8,22.2,0000.0,0007.97,0006.20,0006.04
2023-12-12 09:08:00,SystemResetWarning,0833.8,5.00,000.00,022.5,021.5,000.0,030.8,023.8,22.2,0000.0,0007.96,0006.16,0005.99
2023-12-12 09:09:00,SystemResetWarning,0833.9,5.00,000.00,022.5,021.5,000.0,030.8,023.8,22.2,0000.0,0007.90,0006.10,0005.94
2023-12-12 09:10:00,SystemResetWarning,0833.9,5.00,000.00,022.5,021.5,000.0,030.8,023.8,22.2,0000.0,0007.87,0006.06,0005.90
2023-12-12 09:11:00,SystemResetWarning,0833.8,5.00,000.00,022.5,021.5,000.0,030.8,023.8,22.2,0000.0,0007.76,0006.00,0005.85
2023-12-12 09:12:00,SystemResetWarning,0833.8,5.00,000.00,022.5,021.5,000.0,030.8,023.8,22.2,0000.0,0007.73,0005.94,0005.76
2023-12-12 09:13:00,SystemResetWarning,0833.8,5.00,000.00,022.5,021.5,000.0,030.8,023.8,22.2,0000.0,0007.63,0005.86,0005.70
2023-12-12 09:14:00,SystemResetWarning,0833.8,5.00,000.00,022.5,021.5,000.0,030.8,023.8,22.2,0000.0,0007.59,0005.80,0005.64
2023-12-12 09:15:00,SystemResetWarning,0833.8,5.00,000.00,022.5,021.5,000.0,030.8,023.8,22.1,0000.0,0007.60,0005.77,0005.61
2023-12-12 09:16:00,SystemResetWarning,0833.8,5.00,000.00,022.5,021.5,000.0,030.8,023.8,22.1,0000.0,0007.60,0005.76,0005.59
2023-12-12 09:17:00,SystemResetWarning,0833.8,5.00,000.00,022.5,021.5,000.0,030.8,023.8,22.1,0000.0,0007.61,0005.73,0005.56
2023-12-12 09:18:00,SystemResetWarning,0833.8,4.99,000.00,022.5,021.5,000.0,030.8,023.8,22.1,0000.0,0007.55,0005.64,0005.48
2023-12-12 09:19:00,SystemResetWarning,0833.8,4.99,000.00,022.5,021.5,000.0,030.8,023.8,22.1,0000.0,0007.42,0005.53,0005.40
2023-12-12 09:20:00,SystemResetWarning,0833.8,5.00,000.00,022.5,021.5,000.0,030.8,023.8,22.1,0000.0,0007.38,0005.47,0005.34
2023-12-12 09:21:00,SystemResetWarning,0833.8,5.00,000.00,022.5,021.5,000.0,030.8,023.8,22.1,0000.0,0007.32,0005.41,0005.27
2023-12-12 09:22:00,SystemResetWarning,0833.8,5.00,000.00,022.5,021.5,000.0,030.8,023.8,22.1,0000.0,0007.32,0005.36,0005.22
2023-12-12 09:23:00,SystemResetWarning,0833.8,5.00,000.00,022.5,021.5,000.0,030.8,023.8,22.1,0000.0,0007.30,0005.33,0005.20
2023-12-12 09:24:00,SystemResetWarning,0833.8,5.01,000.00,022.5,021.5,000.0,030.8,023.8,22.1,0000.0,0007.27,0005.32,0005.19
2023-12-12 09:25:00,SystemResetWarning,0833.8,5.00,000.00,022.5,021.5,000.0,030.8,023.8,22.1,0000.0,0007.25,0005.32,0005.19
2023-12-12 09:26:00,SystemResetWarning,0833.8,5.00,000.00,022.5,021.5,000.0,030.8,023.8,22.1,0000.0,0007.15,0005.32,0005.18
2023-12-12 09:27:00,SystemResetWarning,0833.8,5.00,000.00,022.5,021.6,000.0,030.8,023.8,22.1,0000.0,0007.16,0005.31,0005.17
2023-12-12 09:28:00,SystemResetWarning,0833.8,5.00,000.00,022.5,021.6,000.0,030.8,023.8,22.1,0000.0,0007.14,0005.31,0005.17
2023-12-12 09:29:00,SystemResetWarning,0833.8,5.00,000.00,022.5,021.6,000.0,030.8,023.8,22.1,0000.0,0007.02,0005.33,0005.19
2023-12-12 09:30:00,SystemResetWarning,0833.8,5.00,000.00,022.5,021.6,000.0,030.8,023.8,22.1,0000.0,0007.25,0005.40,0005.22
2023-12-12 09:31:00,SystemResetWarning,0833.8,4.99,000.00,022.5,021.5,000.0,030.8,023.8,22.1,0000.0,0007.37,0005.45,0005.26
2023-12-12 09:32:00,SystemResetWarning,0833.8,4.99,000.00,022.5,021.6,000.0,030.8,023.8,22.1,0000.0,0007.38,0005.47,0005.29
2023-12-12 09:33:00,SystemResetWarning,0833.8,5.00,000.00,022.5,021.6,000.0,030.8,023.8,22.1,0000.0,0007.37,0005.49,0005.32
2023-12-12 09:34:00,SystemResetWarning,0833.7,5.01,000.00,022.5,021.6,000.0,030.8,023.8,22.1,0000.0,0007.40,0005.52,0005.34
2023-12-12 09:35:00,SystemResetWarning,0833.7,5.01,000.00,022.5,021.6,000.0,030.8,023.8,22.1,0000.0,0007.49,0005.56,0005.37
2023-12-12 09:36:00,SystemResetWarning,0833.7,5.00,000.00,022.5,021.6,000.0,030.8,023.8,22.1,0000.0,0007.51,0005.58,0005.38
2023-12-12 09:37:00,SystemResetWarning,0833.8,5.00,000.00,022.5,021.6,000.0,030.8,023.8,22.1,0000.0,0007.56,0005.60,0005.39
2023-12-12 09:38:00,SystemResetWarning,0833.8,4.99,000.00,022.5,021.6,000.0,030.8,023.8,22.1,0000.0,0007.60,0005.61,0005.40
2023-12-12 09:39:00,SystemResetWarning,0833.8,4.99,000.00,022.5,021.6,000.0,030.8,023.8,22.1,0000.0,0007.61,0005.62,0005.41
2023-12-12 09:40:00,SystemResetWarning,0833.7,5.00,000.00,022.5,021.6,000.0,030.8,023.8,22.1,0000.0,0007.64,0005.65,0005.43
2023-12-12 09:41:00,SystemResetWarning,0833.7,5.00,000.00,022.5,021.6,000.0,030.8,023.8,22.1,0000.0,0007.58,0005.64,0005.46
2023-12-12 09:42:00,SystemResetWarning,0833.6,5.00,000.00,022.5,021.6,000.0,030.8,023.8,22.1,0000.0,0007.48,0005.65,0005.49
2023-12-12 09:43:00,SystemResetWarning,0833.7,5.00,000.00,022.5,021.6,000.0,030.8,023.8,22.1,0000.0,0007.55,0005.69,0005.52
2023-12-12 09:44:00,SystemResetWarning,0833.7,5.00,000.00,022.5,021.6,000.0,030.8,023.8,22.1,0000.0,0007.60,0005.73,0005.55
2023-12-12 09:45:00,SystemResetWarning,0833.7,5.00,000.00,022.5,021.5,000.0,030.8,023.8,22.1,0000.0,0007.55,0005.74,0005.58
2023-12-12 09:46:00,SystemResetWarning,0833.7,5.00,000.00,022.5,021.5,000.0,030.8,023.8,22.1,0000.0,0007.57,0005.77,0005.60
2023-12-12 09:47:00,SystemResetWarning,0833.7,5.00,000.00,022.5,021.5,000.0,030.8,023.8,22.1,0000.0,0008.05,0005.80,0005.63
2023-12-12 09:48:00,SystemResetWarning,0833.7,4.99,000.00,022.5,021.5,000.0,030.8,023.8,22.1,0000.0,0008.21,0005.81,0005.66
2023-12-12 09:49:00,SystemResetWarning,0833.7,4.99,000.00,022.5,021.5,000.0,030.8,023.8,22.1,0000.0,0008.23,0005.85,0005.69
2023-12-12 09:50:00,SystemResetWarning,0833.7,5.00,000.00,022.5,021.5,000.0,030.8,023.8,22.1,0000.0,0008.28,0005.89,0005.73
2023-12-12 09:51:00,SystemResetWarning,0833.7,5.00,000.00,022.5,021.5,000.0,030.8,023.7,22.1,0000.0,0008.30,0005.91,0005.76
2023-12-12 09:52:00,SystemResetWarning,0833.6,5.00,000.00,022.5,021.5,000.0,030.8,023.8,22.1,0000.0,0008.34,0005.95,0005.78
2023-12-12 09:53:00,SystemResetWarning,0833.7,5.00,000.00,022.5,021.5,000.0,030.8,023.8,22.1,0000.0,0008.37,0005.98,0005.81
2023-12-12 09:54:00,SystemResetWarning,0833.7,5.00,000.00,022.5,021.5,000.0,030.8,023.8,22.1,0000.0,0008.35,0005.99,0005.83
2023-12-12 09:55:00,SystemResetWarning,0833.7,5.00,000.00,022.5,021.5,000.0,030.8,023.8,22.0,0000.0,0008.37,0006.01,0005.84
2023-12-12 09:56:00,SystemResetWarning,0833.7,5.00,000.00,022.5,021.5,000.0,030.8,023.8,22.0,0000.0,0008.39,0006.02,0005.85
2023-12-12 09:57:00,SystemResetWarning,0833.6,5.00,000.00,022.5,021.5,000.0,030.8,023.8,22.0,0000.0,0008.37,0006.02,0005.86
2023-12-12 09:58:00,SystemResetWarning,0833.6,5.00,000.00,022.5,021.5,000.0,030.8,023.8,22.0,0000.0,0008.32,0006.04,0005.89
2023-12-12 09:59:00,SystemResetWarning,0833.6,5.00,000.00,022.5,021.5,000.0,030.8,023.8,22.0,0000.0,0008.08,0006.07,0005.90
